International Skating Union - Official Site

Essent ISU World Cup Hamar
November 27-28, 2010

Draw | Lap Times | Index | World Cup

Referee: Knut Arthur  OLSEN  (NOR)
Starter: Luigi  CASAL  (ITA)
StartTime: EndTime: Air Temp: Ice Temp: Humidity:
16:15 16:45 16 ℃ -10.8 ℃ 16.6%
Result Team Pursuit Men
Rankings as of Nov 27 2010 7:12PM
Rank: No.: Team: Nation: Time: Behind: Points:
Total 12
1 1 USA (66) Shani DAVIS (67) Jonathan KUCK (68) Trevor MARSICANO USA USA 3:43.580.5 - 18.23 - (18.2)
1.0 - 31.83 - (13.6)
1.5 - 45.18 - (13.3)
2.0 - 58.74 - (13.5)
2.5 - 1:12.02 - (13.2)
3.0 - 1:25.38 - (13.3)
3.5 - 1:38.98 - (13.6)
4.0 - 1:52.82 - (13.8)
4.5 - 2:06.90 - (14.0)
5.0 - 2:21.11 - (14.2)
5.5 - 2:34.95 - (13.8)
6.0 - 2:48.76 - (13.8)
6.5 - 3:02.60 - (13.8)
7.0 - 3:16.13 - (13.5)
7.5 - 3:29.55 - (13.4)
8.0 - 3:43.58 - (13.9)
100
2 5 Canada (3) Lucas MAKOWSKY (4) Denny MORRISON (6) Justin WARSYLEWICZ CAN CAN 3:44.610.5 - 17.38 - (17.3)
1.0 - 30.61 - (13.2)
1.5 - 43.74 - (13.1)
2.0 - 57.48 - (13.7)
2.5 - 1:11.03 - (13.5)
3.0 - 1:24.52 - (13.5)
3.5 - 1:38.03 - (13.5)
4.0 - 1:51.69 - (13.6)
4.5 - 2:05.51 - (13.8)
5.0 - 2:19.35 - (13.8)
5.5 - 2:33.36 - (14.0)
6.0 - 2:47.57 - (14.2)
6.5 - 3:02.00 - (14.4)
7.0 - 3:16.24 - (14.2)
7.5 - 3:30.44 - (14.2)
8.0 - 3:44.61 - (14.1)
1.03 80
3 2 Norway (47) Håvard BØKKO (48) Henrik CHRISTIANSEN (50) Fredrik VAN DER HORST NOR NOR 3:47.010.5 - 17.82 - (17.8)
1.0 - 31.07 - (13.2)
1.5 - 44.54 - (13.4)
2.0 - 58.41 - (13.8)
2.5 - 1:12.14 - (13.7)
3.0 - 1:25.71 - (13.5)
3.5 - 1:39.62 - (13.9)
4.0 - 1:53.57 - (13.9)
4.5 - 2:07.61 - (14.0)
5.0 - 2:21.68 - (14.0)
5.5 - 2:35.99 - (14.3)
6.0 - 2:50.14 - (14.1)
6.5 - 3:04.47 - (14.3)
7.0 - 3:18.57 - (14.1)
7.5 - 3:32.78 - (14.2)
8.0 - 3:47.01 - (14.3)
3.43 70
4 7 Russia (59) Pavel BAYNOV (61) Aleksandr RUMYANTSEV (62) Ivan SKOBREV RUS RUS 3:48.010.5 - 17.90 - (17.9)
1.0 - 31.93 - (14.0)
1.5 - 45.88 - (13.9)
2.0 - 59.63 - (13.7)
2.5 - 1:13.45 - (13.8)
3.0 - 1:27.56 - (14.1)
3.5 - 1:41.42 - (13.8)
4.0 - 1:55.35 - (13.9)
4.5 - 2:09.25 - (13.9)
5.0 - 2:23.35 - (14.0)
5.5 - 2:37.36 - (14.0)
6.0 - 2:52.01 - (14.6)
6.5 - 3:06.09 - (14.0)
7.0 - 3:20.05 - (13.9)
7.5 - 3:33.75 - (13.6)
8.0 - 3:48.01 - (14.2)
4.43 60
5 3 Netherlands (38) Remco OLDE HEUVEL (45) Koen VERWEIJ (46) Bob de VRIES NED NED 3:48.490.5 - 17.97 - (17.9)
1.0 - 31.48 - (13.5)
1.5 - 44.71 - (13.2)
2.0 - 58.17 - (13.4)
2.5 - 1:11.60 - (13.4)
3.0 - 1:25.30 - (13.7)
3.5 - 1:39.11 - (13.8)
4.0 - 1:52.80 - (13.6)
4.5 - 2:06.59 - (13.7)
5.0 - 2:20.50 - (13.9)
5.5 - 2:34.55 - (14.0)
6.0 - 2:49.02 - (14.4)
6.5 - 3:03.52 - (14.5)
7.0 - 3:18.34 - (14.8)
7.5 - 3:33.25 - (14.9)
8.0 - 3:48.49 - (15.2)
4.91 50
6 10 Kazakhstan (29) Dmitry BABENKO (31) Artyom BELOUSOV (33) Aleksandr ZHIGIN KAZ KAZ 3:49.890.5 - 18.20 - (18.2)
1.0 - 32.09 - (13.7)
1.5 - 45.77 - (13.6)
2.0 - 59.71 - (13.9)
2.5 - 1:13.57 - (13.8)
3.0 - 1:28.02 - (14.4)
3.5 - 1:42.26 - (14.2)
4.0 - 1:56.60 - (14.3)
4.5 - 2:10.69 - (14.0)
5.0 - 2:24.92 - (14.2)
5.5 - 2:39.16 - (14.2)
6.0 - 2:53.71 - (14.5)
6.5 - 3:07.62 - (13.9)
7.0 - 3:21.65 - (14.0)
7.5 - 3:35.65 - (14.0)
8.0 - 3:49.89 - (14.2)
6.31 45
7 9 Poland (55) Zbigniew BRODKA (57) Konrad NIEDZWIEDZKI (58) Jan SZYMANSKI POL POL 3:50.950.5 - 18.65 - (18.6)
1.0 - 32.87 - (14.2)
1.5 - 47.43 - (14.5)
2.0 - 1:00.73 - (13.3)
2.5 - 1:14.61 - (13.8)
3.0 - 1:28.84 - (14.2)
3.5 - 1:42.86 - (14.0)
4.0 - 1:57.02 - (14.1)
4.5 - 2:11.09 - (14.0)
5.0 - 2:25.29 - (14.2)
5.5 - 2:39.51 - (14.2)
6.0 - 2:53.72 - (14.2)
6.5 - 3:08.17 - (14.4)
7.0 - 3:22.61 - (14.4)
7.5 - 3:36.95 - (14.3)
8.0 - 3:50.95 - (14.0)
7.37 40
8 4 Italy (20) Matteo ANESI (21) Enrico FABRIS (23) Luca STEFANI ITA ITA 3:51.280.5 - 17.80 - (17.8)
1.0 - 31.28 - (13.4)
1.5 - 44.91 - (13.6)
2.0 - 58.95 - (14.0)
2.5 - 1:13.06 - (14.1)
3.0 - 1:27.13 - (14.0)
3.5 - 1:41.35 - (14.2)
4.0 - 1:55.20 - (13.8)
4.5 - 2:09.30 - (14.0)
5.0 - 2:23.33 - (14.0)
5.5 - 2:37.78 - (14.4)
6.0 - 2:52.18 - (14.4)
6.5 - 3:06.99 - (14.8)
7.0 - 3:21.76 - (14.7)
7.5 - 3:36.60 - (14.8)
8.0 - 3:51.28 - (14.7)
7.70 36
9 11 France (11) Pascal BRIAND (12) Alexis CONTIN (13) Bejamin MACÉ FRA FRA 3:52.360.5 - 18.01 - (18.0)
1.0 - 31.89 - (13.7)
1.5 - 45.75 - (13.8)
2.0 - 59.71 - (13.9)
2.5 - 1:13.77 - (14.0)
3.0 - 1:27.92 - (14.1)
3.5 - 1:42.09 - (14.1)
4.0 - 1:56.14 - (14.0)
4.5 - 2:10.48 - (14.3)
5.0 - 2:24.68 - (14.2)
5.5 - 2:39.17 - (14.4)
6.0 - 2:53.69 - (14.5)
6.5 - 3:08.41 - (14.7)
7.0 - 3:22.99 - (14.5)
7.5 - 3:37.57 - (14.5)
8.0 - 3:52.36 - (14.7)
8.78 32
10 12 Japan (24) Hiroki ABE (26) Shota NAKAMURA (27) Takuro ODA JPN JPN 3:54.850.5 - 18.85 - (18.8)
1.0 - 32.60 - (13.7)
1.5 - 46.92 - (13.8)
2.0 - 1:00.95 - (14.0)
2.5 - 1:15.14 - (14.2)
3.0 - 1:29.43 - (14.2)
3.5 - 1:43.92 - (14.4)
4.0 - 1:58.01 - (14.0)
4.5 - 2:12.25 - (14.2)
5.0 - 2:26.79 - (14.5)
5.5 - 2:41.18 - (14.3)
6.0 - 2:55.86 - (14.6)
6.5 - 3:10.69 - (14.8)
7.0 - 3:25.16 - (14.4)
7.5 - 3:39.98 - (14.8)
8.0 - 3:54.85 - (14.8)
11.27 28
11 6 Germany (14) Patrick BECKERT (18) Tobias SCHNEIDER (19) Marco WEBER GER GER 3:56.560.5 - 18.02 - (18.0)
1.0 - 31.31 - (13.2)
1.5 - 44.78 - (13.4)
2.0 - 57.91 - (13.1)
2.5 - 1:11.44 - (13.5)
3.0 - 1:25.42 - (13.9)
3.5 - 1:39.41 - (13.9)
4.0 - 1:53.65 - (14.2)
4.5 - 2:08.15 - (14.5)
5.0 - 2:22.43 - (14.2)
5.5 - 2:36.74 - (14.3)
6.0 - 2:51.58 - (14.8)
6.5 - 3:07.32 - (15.7)
7.0 - 3:23.32 - (15.9)
7.5 - 3:39.69 - (16.3)
8.0 - 3:56.56 - (16.9)
12.98 24
12 13 Czech Republic (7) Zdenek HASELBERGER (8) Pavel KULMA (9) Milan SÁBLIK CZE CZE 3:58.150.5 - 18.69 - (18.6)
1.0 - 33.20 - (14.5)
1.5 - 47.50 - (14.4)
2.0 - 1:01.85 - (14.3)
2.5 - 1:16.40 - (14.5)
3.0 - 1:30.70 - (14.3)
3.5 - 1:45.14 - (14.4)
4.0 - 1:59.43 - (14.2)
4.5 - 2:14.33 - (14.9)
5.0 - 2:29.01 - (14.6)
5.5 - 2:43.97 - (14.9)
6.0 - 2:58.61 - (14.6)
6.5 - 3:13.66 - (15.0)
7.0 - 3:28.20 - (14.5)
7.5 - 3:43.29 - (15.0)
8.0 - 3:58.15 - (14.8)
14.57 21